Temp
-1 -1 -1 -1 -0 -0 -0 -0 0 0 1 1 2 2 2 3 3 5 4 4 5 1 1 3 3 2 2 2 2 2 2 1 -1 1 1 1 1 3 3 3 4 3 3 1 1 -0 2 6 6 5 5 6 7 6
-1 -1 -1 -1 -1 -1 -0 -0 -0 -0 0 1 1 2 2 3 3 4 4 4 4 3 0 2 3 4 4 4 3 2 2 1 2 -0 -0 1 2 0 3 2 4 3 3 2 3 2 4 5 6 7 8 7 7 7
-1 -1 -1 -1 -1 -1 -1 -1 -1 -1 -0 0 1 2 2 3 3 4 3 3 3 2 2 2 2 3 4 5 5 3 2 3 3 3 -1 -0 2 1 1 1 3 4 4 2 3 3 4 6 6 6 6 7 7 6
-1 -1 -1 -1 -1 -1 -1 -1 -1 -1 -1 -0 -0 1 1 2 2 3 4 3 3 3 -1 0 2 2 3 4 5 5 4 4 3 4 -1 -4 -1 -0 -2 -0 -0 1 3 2 1 2 3 5 5 5 6 6 5 5
-2 -1 -1 -1 -1 -1 -1 -1 -1 -1 -1 -1 -0 -0 0 1 2 3 3 3 3 3 -2 1 1 1 2 3 4 4 4 4 3 -0 -4 -3 -2 -2 -4 -3 -2 1 1 0 1 3 4 4 4 4 4 4 4 4
-2 -2 -2 -1 -1 -1 -1 -1 -1 -1 -1 -0 0 0 1 1 2 3 3 2 2 2 2 -3 0 0 1 2 3 3 3 3 2 1 -3 -0 1 1 -4 -3 1 4 4 4 3 3 4 4 3 3 3 3 4 4
-2 -2 -2 -2 -2 -2 -2 -2 -1 -1 -1 -0 -0 0 1 2 2 1 -2 -0 2 3 2 -5 -4 -0 0 1 0 0 1 1 1 -0 -1 -1 0 0 -5 -1 2 3 3 3 3 3 2 2 2 2 3 3 3 3
-2 -2 -2 -2 -2 -2 -2 -2 -2 -2 -1 -1 -1 -1 0 0 0 -0 -1 -0 1 1 1 -5 -2 -2 0 0 -1 0 -0 0 -1 -1 -2 -3 -1 -3 -4 -1 2 2 2 1 2 1 2 2 2 2 2 2 2 2
-2 -2 -2 -2 -2 -2 -2 -2 -2 -2 -1 -1 -1 -1 -1 -0 -1 -2 -1 -0 1 0 -4 -3 -4 -4 -1 -3 -2 -1 -0 -7 -3 -3 -4 -3 -5 -3 -1 -0 1 2 1 1 2 2 1 1 1 1 1 1 0 1
-3 -3 -3 -2 -3 -2 -2 -2 -2 -2 -2 -2 -1 -1 -3 -3 -3 -2 -2 -1 -1 -2 -2 -4 -3 -4 -1 -3 -4 -3 -2 -5 -5 -3 -3 -4 -3 -0 1 1 1 1 1 1 1 1 1 1 1 1 0 -0 -1 -1
-3 -2 -2 -3 -2 -2 -2 -2 -2 -2 -2 -2 -2 -3 -3 -3 -3 -2 -3 -3 -4 -4 -3 -3 -2 -3 -1 -4 -3 -2 -5 -4 -2 -4 -3 -2 -2 -1 0 -0 0 0 1 1 1 1 2 2 2 1 -0 -1 -1 -1
-3 -2 -3 -3 -3 -2 -3 -3 -3 -2 -2 -2 -2 -4 -3 -3 -2 -4 -4 -3 -3 -3 -4 -4 -2 -1 -1 -0 -3 -2 -1 -2 -1 -3 -1 -2 -2 -0 -0 -1 -1 -0 0 1 1 1 1 1 2 1 2 2 1 1
-3 -3 -3 -2 -2 -3 -3 -3 -3 -2 -2 -2 -3 -3 -3 -3 -5 -4 -5 -3 -5 -3 -2 -2 -4 -0 -1 -0 -3 -3 -2 -3 -1 -4 -2 -0 0 -1 -1 -2 -3 -3 -2 -1 1 1 2 2 3 2 2 2 2 1
-3 -3 -3 -3 -3 -3 -3 -3 -3 -3 -2 -2 -2 -4 -7 -4 -4 -5 -4 -7 -1 -1 -0 0 -1 -2 -1 -2 -3 -1 -2 -2 -3 -2 0 -2 -1 -1 -2 -3 -3 -3 -3 -3 -2 -1 -0 1 2 3 3 3 2 2
-4 -4 -4 -4 -4 -4 -4 -4 -4 -2 -2 -3 -2 -6 -5 -3 -3 -3 -2 -1 -0 -0 1 -1 -2 -1 -3 -2 -2 -2 -3 -3 -1 -1 -1 1 -0 -1 -2 -3 -3 -3 -2 -3 -3 -3 -2 -1 -1 -1 0 1 -0 0
-4 -4 -4 -4 -4 -4 -4 -3 -2 -2 -3 -3 -4 -5 -3 -5 -7 -3 -3 -0 1 0 0 0 -3 -3 -1 -1 -2 -3 -1 -2 -1 -2 0 -0 -0 -1 -2 -3 -4 -4 -4 -4 -4 -4 -3 -2 -2 -2 -2 -2 -1 -1
-4 -4 -5 -5 -4 -4 -3 -3 -2 -3 -3 -3 -4 -2 -2 -2 -2 -3 -2 -1 -1 -0 -5 -3 -2 -1 -1 -1 -0 -1 -3 -4 -2 -0 -0 -1 -2 -2 -3 -3 -3 -4 -5 -5 -5 -5 -4 -4 -3 -3 -3 -3 -3 -4
-4 -4 -5 -5 -4 -4 -4 -3 -4 -4 -3 -2 -4 -2 -2 -2 -2 -2 -1 -1 -1 -1 -1 -2 -1 -2 -3 -0 -0 -1 -1 -1 -1 -1 -1 -2 -3 -3 -3 -3 -4 -4 -5 -5 -5 -5 -4 -4 -4 -4 -4 -5 -5 -5
-4 -4 -5 -5 -4 -4 -4 -3 -4 -4 -3 -2 -1 -1 -1 -1 -1 -1 -1 -1 -1 -1 -1 -2 -2 -3 -4 -1 -3 -2 -1 -2 -1 -1 -1 -2 -3 -4 -4 -4 -4 -4 -5 -5 -5 -4 -4 -4 -4 -5 -5 -5 -6 -6
-4 -5 -4 -4 -4 -4 -4 -4 -4 -3 -3 -2 -1 -1 -1 -1 -1 -1 -1 -2 -2 -2 -2 -2 -3 -1 -0 0 -0 -0 -1 -1 -1 -1 -1 -1 -2 -3 -3 -4 -4 -4 -4 -4 -5 -5 -4 -4 -5 -5 -5 -5 -6 -6
-4 -5 -5 -5 -4 -4 -5 -4 -4 -3 -3 -2 -1 -1 -1 -1 -1 -1 -1 -2 -2 -2 -3 -1 -0 1 1 1 0 -0 -0 -1 -1 -1 0 -0 -1 -2 -2 -3 -4 -4 -4 -4 -4 -4 -4 -5 -5 -5 -5 -5 -6 -6
-5 -5 -5 -5 -5 -4 -4 -4 -4 -3 -3 -2 -2 -1 -1 -3 -2 -1 -2 -2 -1 -1 -0 1 1 1 0 1 0 -0 -1 -1 -1 -1 -1 -1 -1 -1 -2 -2 -3 -3 -4 -4 -4 -4 -4 -5 -5 -5 -5 -6 -6 -6
-5 -5 -5 -5 -4 -4 -4 -3 -3 -3 -3 -3 -2 -3 -3 -3 -2 -2 -2 -1 -1 0 0 0 0 0 0 -0 -0 -1 -1 -1 -1 -1 -1 -1 -2 -2 -2 -3 -3 -3 -4 -4 -4 -4 -4 -5 -5 -5 -5 -6 -6 -6
-4 -4 -4 -5 -4 -6 -4 -3 -3 -3 -2 -2 -2 -2 -2 -2 -2 -2 -3 -1 0 1 1 1 0 0 -0 -1 -1 -1 -2 -2 -1 -2 -2 -2 -2 -2 -3 -3 -3 -4 -5 -4 -4 -5 -5 -5 -5 -5 -5 -6 -6 -7
-5 -5 -5 -9 -4 -5 -6 -6 -5 -3 -6 -4 -3 -5 -6 -1 -6 -6 -3 -1 0 -0 -0 -0 -0 -0 -1 -1 -2 -2 -2 -2 -2 -2 -2 -2 -3 -3 -3 -4 -4 -4 -4 -4 -4 -4 -4 -5 -5 -5 -5 -6 -6 -7
-6 -6 -6 -7 -7 -5 -6 -8 -8 -7 -6 -6 -5 -3 -2 -7 -6 -5 -4 -2 -2 -1 -1 -1 -1 -1 -2 -2 -2 -2 -2 -3 -3 -3 -3 -3 -4 -4 -4 -4 -4 -5 -5 -4 -4 -4 -4 -4 -5 -5 -5 -5 -6 -7
-9 -9 -9 -9 -8 -7 -7 -5 -4 -5 -6 -6 -6 -7 -8 -7 -9 -6 -4 -4 -4 -3 -2 -2 -2 -1 -2 -3 -3 -3 -3 -3 -3 -4 -4 -5 -5 -5 -5 -5 -5 -6 -5 -5 -5 -6 -5 -5 -6 -6 -5 -6 -6 -6
-9 -10 -11 -10 -10 -8 -7 -6 -8 -7 -6 -5 -5 -7 -7 -8 -9 -6 -6 -5 -5 -3 -3 -3 -3 -2 -2 -3 -3 -4 -4 -4 -5 -5 -5 -5 -6 -5 -5 -6 -6 -6 -6 -6 -6 -6 -6 -6 -6 -6 -6 -6 -6 -6
-10 -11 -11 -11 -9 -8 -8 -9 -9 -8 -9 -7 -9 -9 -6 -8 -8 -7 -7 -6 -5 -5 -5 -4 -4 -4 -4 -5 -5 -6 -6 -6 -6 -6 -6 -6 -6 -7 -7 -7 -7 -7 -7 -7 -7 -7 -7 -7 -6 -6 -6 -6 -6 -6
-11 -12 -12 -11 -12 -9 -9 -8 -9 -9 -8 -8 -9 -7 -8 -9 -9 -8 -7 -7 -7 -7 -7 -7 -7 -6 -6 -6 -7 -7 -7 -7 -7 -7 -7 -7 -7 -8 -8 -7 -8 -8 -8 -8 -8 -7 -7 -6 -6 -6 -7 -6 -6 -6
-12 -12 -12 -11 -12 -9 -9 -9 -8 -8 -7 -7 -7 -7 -9 -10 -10 -9 -8 -8 -8 -8 -8 -8 -7 -7 -7 -7 -7 -8 -8 -8 -9 -9 -9 -9 -9 -9 -9 -9 -9 -9 -9 -8 -8 -8 -7 -7 -6 -6 -6 -6 -6 -6
-12 -11 -12 -16 -14 -10 -10 -9 -9 -9 -8 -7 -6 -8 -8 -10 -12 -11 -11 -10 -9 -8 -8 -8 -8 -8 -8 -8 -8 -8 -8 -10 -10 -10 -10 -10 -10 -9 -9 -9 -9 -9 -8 -8 -8 -8 -8 -7 -7 -7 -7 -6 -6 -6
-13 -12 -13 -13 -13 -11 -10 -10 -10 -10 -9 -8 -7 -8 -9 -11 -13 -14 -13 -12 -11 -10 -10 -10 -10 -10 -10 -9 -10 -11 -11 -11 -11 -10 -10 -10 -9 -8 -9 -10 -9 -9 -9 -8 -9 -8 -8 -8 -8 -8 -7 -7 -7 -6
Height
1326 1324 1321 1319 1317 1315 1315 1315 1316 1317 1318 1320 1322 1324 1327 1332 1334 1337 1342 1345 1344 1354 1366 1370 1370 1376 1382 1388 1391 1401 1411 1417 1420 1423 1428 1434 1432 1430 1430 1431 1431 1438 1451 1461 1468 1480 1470 1441 1447 1451 1446 1443 1447 1449
1331 1330 1329 1327 1325 1324 1325 1324 1324 1324 1326 1327 1329 1332 1334 1337 1338 1340 1341 1343 1348 1355 1370 1374 1377 1377 1380 1386 1387 1394 1395 1401 1405 1417 1425 1425 1429 1433 1428 1438 1430 1438 1432 1441 1442 1444 1436 1437 1439 1439 1441 1441 1443 1446
1333 1334 1334 1334 1333 1331 1331 1331 1331 1332 1334 1335 1335 1336 1339 1341 1343 1345 1347 1351 1355 1365 1376 1378 1378 1381 1385 1385 1388 1391 1398 1403 1400 1404 1414 1421 1424 1428 1431 1433 1430 1425 1427 1434 1434 1431 1432 1435 1437 1439 1439 1439 1440 1443
1336 1337 1337 1337 1338 1338 1338 1338 1339 1340 1341 1342 1343 1343 1345 1347 1350 1352 1352 1356 1361 1365 1375 1385 1386 1387 1388 1388 1391 1391 1397 1401 1400 1404 1411 1421 1428 1426 1433 1434 1431 1427 1427 1429 1432 1430 1433 1433 1435 1437 1437 1437 1439 1442
1339 1340 1340 1340 1340 1341 1342 1343 1344 1346 1347 1348 1350 1351 1351 1352 1354 1356 1357 1361 1363 1367 1377 1385 1387 1389 1392 1392 1389 1392 1399 1399 1403 1410 1416 1424 1423 1428 1432 1432 1431 1423 1426 1431 1432 1427 1429 1430 1432 1435 1436 1438 1439 1440
1339 1341 1342 1344 1344 1345 1346 1347 1348 1350 1351 1353 1353 1353 1353 1355 1357 1359 1360 1365 1365 1365 1372 1387 1394 1398 1393 1391 1389 1395 1401 1406 1405 1410 1418 1421 1423 1427 1436 1433 1417 1417 1421 1419 1420 1424 1424 1423 1428 1431 1432 1432 1432 1432
1340 1342 1345 1347 1349 1351 1353 1354 1355 1356 1357 1357 1358 1359 1360 1360 1360 1362 1369 1370 1369 1369 1375 1389 1395 1396 1399 1397 1395 1400 1405 1406 1409 1416 1420 1422 1423 1424 1429 1420 1409 1415 1414 1414 1417 1419 1414 1417 1419 1422 1423 1424 1425 1424
1341 1344 1346 1348 1351 1354 1356 1359 1361 1362 1364 1365 1366 1367 1368 1368 1369 1371 1373 1376 1376 1374 1378 1390 1396 1398 1398 1398 1403 1405 1407 1410 1414 1417 1421 1423 1424 1423 1423 1403 1404 1403 1405 1407 1406 1407 1406 1412 1415 1415 1417 1419 1418 1416
1342 1345 1346 1349 1352 1355 1359 1361 1364 1365 1367 1369 1371 1373 1374 1375 1376 1379 1379 1379 1378 1379 1383 1389 1394 1401 1397 1400 1404 1407 1408 1415 1416 1418 1422 1424 1424 1420 1403 1402 1400 1400 1402 1402 1402 1402 1404 1405 1407 1409 1411 1410 1408 1407
1345 1346 1348 1349 1353 1356 1360 1363 1366 1368 1371 1373 1375 1375 1378 1381 1383 1383 1385 1384 1383 1386 1388 1390 1390 1396 1398 1403 1411 1415 1414 1416 1421 1418 1421 1423 1414 1402 1401 1399 1397 1398 1398 1397 1398 1397 1398 1400 1402 1403 1404 1404 1402 1400
1347 1347 1348 1350 1354 1357 1362 1365 1368 1371 1373 1375 1376 1380 1382 1382 1382 1382 1383 1385 1386 1387 1386 1391 1394 1399 1404 1408 1410 1410 1411 1411 1415 1418 1419 1416 1408 1400 1398 1397 1397 1396 1393 1391 1389 1390 1394 1396 1396 1398 1398 1395 1391 1391
1348 1349 1350 1351 1353 1360 1364 1367 1370 1374 1376 1378 1378 1382 1383 1384 1384 1386 1388 1389 1388 1390 1391 1394 1396 1398 1401 1402 1404 1408 1407 1412 1410 1411 1412 1409 1400 1398 1398 1396 1395 1393 1390 1386 1381 1384 1388 1390 1391 1392 1392 1391 1390 1389
1354 1354 1355 1356 1358 1362 1366 1370 1373 1377 1379 1380 1381 1384 1386 1388 1392 1390 1396 1390 1394 1389 1391 1393 1396 1397 1400 1401 1404 1407 1409 1413 1407 1414 1409 1399 1396 1396 1395 1394 1392 1390 1388 1386 1384 1383 1385 1386 1386 1387 1387 1386 1388 1387
1362 1362 1363 1364 1365 1367 1370 1372 1376 1379 1381 1382 1384 1388 1393 1392 1391 1390 1389 1390 1387 1387 1388 1391 1394 1396 1400 1402 1404 1406 1407 1408 1412 1408 1396 1397 1396 1395 1395 1394 1392 1391 1389 1387 1386 1385 1384 1384 1385 1385 1386 1386 1388 1389
1369 1371 1372 1373 1374 1374 1376 1378 1379 1381 1382 1385 1387 1394 1391 1388 1387 1387 1387 1387 1388 1389 1390 1392 1395 1397 1400 1403 1404 1406 1410 1411 1403 1400 1396 1393 1395 1396 1396 1395 1393 1392 1391 1389 1388 1387 1386 1386 1385 1386 1387 1388 1390 1392
1374 1376 1377 1378 1379 1380 1381 1382 1383 1383 1384 1387 1389 1390 1389 1389 1390 1389 1389 1390 1390 1391 1392 1393 1396 1400 1399 1399 1402 1405 1402 1402 1397 1394 1392 1393 1394 1396 1396 1396 1394 1394 1392 1391 1390 1389 1388 1389 1389 1389 1390 1391 1393 1394
1378 1379 1380 1381 1382 1383 1384 1385 1385 1386 1388 1388 1388 1388 1388 1389 1389 1390 1391 1391 1391 1392 1395 1395 1397 1395 1396 1395 1395 1395 1399 1395 1392 1392 1393 1394 1395 1395 1396 1396 1395 1394 1393 1393 1391 1391 1391 1391 1391 1391 1392 1393 1394 1395
1381 1382 1383 1384 1385 1386 1387 1387 1389 1389 1388 1387 1387 1387 1388 1388 1389 1389 1390 1391 1392 1393 1393 1394 1394 1395 1397 1388 1391 1392 1391 1390 1391 1392 1393 1393 1394 1394 1395 1396 1396 1395 1394 1393 1393 1392 1392 1393 1393 1393 1394 1395 1395 1396
1385 1386 1386 1387 1388 1389 1389 1390 1391 1390 1388 1387 1386 1387 1387 1388 1388 1389 1390 1391 1392 1392 1392 1393 1394 1394 1395 1393 1392 1392 1391 1391 1391 1392 1393 1393 1394 1394 1395 1395 1396 1396 1395 1395 1395 1395 1395 1395 1395 1395 1395 1396 1396 1397
1387 1388 1388 1389 1390 1390 1391 1391 1391 1390 1389 1388 1387 1386 1386 1386 1386 1387 1389 1390 1391 1391 1390 1391 1390 1387 1388 1388 1389 1389 1389 1390 1391 1391 1392 1393 1394 1394 1393 1394 1395 1396 1396 1396 1395 1395 1395 1396 1396 1396 1396 1396 1397 1398
1389 1390 1390 1389 1391 1391 1391 1390 1390 1390 1388 1387 1385 1384 1384 1384 1385 1386 1387 1389 1390 1389 1388 1386 1385 1386 1387 1387 1387 1388 1389 1389 1389 1390 1390 1390 1391 1392 1392 1394 1393 1393 1394 1394 1395 1395 1395 1395 1395 1396 1396 1396 1397 1398
1389 1389 1389 1390 1391 1391 1390 1389 1389 1389 1388 1385 1384 1383 1382 1382 1382 1384 1385 1387 1386 1382 1382 1382 1383 1384 1385 1386 1386 1387 1387 1388 1388 1388 1389 1389 1389 1390 1391 1392 1393 1393 1392 1393 1393 1393 1394 1394 1394 1394 1394 1395 1395 1396
1390 1390 1390 1390 1391 1390 1390 1388 1388 1386 1386 1383 1382 1382 1381 1380 1380 1382 1383 1381 1379 1378 1378 1380 1381 1382 1383 1384 1384 1385 1386 1386 1387 1387 1388 1389 1389 1390 1390 1391 1391 1391 1391 1390 1391 1391 1391 1392 1392 1392 1392 1393 1393 1394
1390 1389 1388 1388 1389 1388 1387 1385 1384 1383 1383 1382 1381 1380 1379 1378 1380 1380 1381 1377 1375 1375 1376 1377 1378 1379 1381 1382 1383 1384 1385 1386 1387 1387 1388 1388 1389 1389 1390 1390 1390 1390 1390 1389 1389 1389 1389 1389 1389 1390 1390 1391 1391 1392
1391 1389 1388 1387 1386 1387 1386 1385 1383 1381 1383 1379 1379 1381 1377 1377 1381 1382 1378 1374 1372 1373 1374 1375 1377 1378 1379 1381 1382 1383 1384 1385 1386 1386 1387 1387 1387 1387 1387 1387 1388 1388 1387 1387 1388 1387 1387 1387 1387 1387 1388 1388 1388 1389
1386 1386 1387 1385 1384 1385 1383 1385 1383 1381 1379 1380 1378 1375 1375 1378 1382 1380 1373 1372 1371 1371 1372 1373 1374 1376 1378 1379 1381 1382 1383 1384 1385 1385 1386 1386 1386 1386 1386 1386 1386 1386 1385 1385 1385 1384 1384 1384 1384 1384 1384 1385 1386 1386
1392 1392 1390 1388 1387 1384 1382 1378 1377 1377 1378 1379 1376 1376 1378 1383 1385 1375 1373 1372 1371 1369 1370 1372 1373 1374 1375 1377 1379 1380 1381 1382 1383 1384 1384 1384 1384 1385 1385 1385 1384 1384 1383 1382 1382 1381 1381 1381 1381 1381 1381 1382 1382 1383
1394 1395 1395 1391 1387 1384 1382 1378 1378 1378 1377 1376 1375 1377 1377 1377 1378 1374 1372 1371 1369 1369 1370 1371 1372 1373 1375 1377 1378 1379 1379 1380 1381 1382 1383 1384 1384 1383 1383 1383 1382 1381 1381 1380 1379 1379 1379 1379 1378 1378 1378 1378 1378 1378
1397 1395 1393 1390 1387 1384 1382 1382 1381 1380 1380 1378 1377 1374 1373 1374 1374 1372 1372 1370 1370 1370 1369 1369 1370 1372 1373 1375 1376 1377 1378 1378 1379 1380 1381 1382 1382 1382 1381 1380 1379 1378 1377 1377 1376 1376 1375 1375 1375 1374 1374 1373 1373 1373
1399 1398 1395 1391 1389 1384 1383 1383 1381 1379 1378 1377 1377 1374 1373 1373 1372 1372 1370 1370 1370 1370 1370 1371 1368 1370 1373 1375 1375 1376 1377 1378 1378 1379 1380 1380 1380 1380 1379 1378 1377 1376 1375 1374 1373 1372 1372 1371 1371 1370 1370 1368 1368 1369
1399 1397 1394 1391 1388 1384 1381 1379 1375 1372 1370 1368 1368 1369 1369 1371 1371 1370 1370 1370 1370 1370 1371 1371 1369 1371 1374 1376 1376 1376 1376 1377 1377 1378 1378 1378 1377 1377 1376 1374 1373 1373 1372 1371 1371 1370 1369 1368 1368 1367 1366 1366 1365 1365
1396 1394 1393 1393 1387 1381 1379 1376 1373 1369 1365 1362 1362 1362 1364 1366 1368 1370 1371 1372 1371 1371 1371 1371 1371 1373 1374 1375 1376 1375 1374 1375 1376 1376 1376 1375 1374 1374 1373 1372 1371 1370 1370 1369 1368 1367 1367 1366 1365 1364 1364 1363 1363 1362
1393 1391 1390 1389 1385 1382 1379 1377 1372 1366 1362 1359 1356 1357 1359 1363 1368 1371 1371 1371 1371 1372 1372 1372 1372 1372 1373 1374 1375 1373 1374 1375 1375 1375 1374 1374 1373 1372 1371 1370 1369 1368 1367 1366 1365 1365 1364 1363 1363 1362 1361 1360 1360 1359
Wind_Speed
17 19 19 21 22 22 23 23 22 21 22 22 20 19 18 18 15 16 16 21 17 9 11 11 16 9 11 7 6 16 8 1 2 2 3 3 2 3 2 4 6 7 7 4 3 3 9 11 7 9 7 9 18 16
11 14 17 19 19 19 20 21 21 19 16 15 14 15 17 18 18 17 18 16 26 16 20 19 15 17 16 10 21 12 6 6 8 4 1 3 2 2 4 3 2 4 6 6 8 7 4 5 3 11 12 14 15 21
7 10 12 15 17 17 18 19 20 20 19 18 17 14 12 12 13 21 25 28 36 32 20 18 20 15 13 9 24 9 3 5 8 7 4 2 3 2 3 3 2 2 4 4 3 2 4 10 8 7 8 10 10 13
4 5 8 10 14 16 16 17 19 20 19 19 18 18 17 16 15 15 23 16 20 11 5 6 14 17 12 16 13 9 17 14 15 10 5 3 3 1 2 2 3 4 4 3 1 3 5 12 10 8 7 7 10 10
8 7 7 8 10 12 14 15 16 16 16 17 18 18 18 18 16 16 18 17 11 6 6 7 17 13 9 11 16 16 15 17 10 4 4 1 3 3 2 2 3 6 5 3 5 9 7 8 6 4 7 7 12 18
10 10 8 9 10 10 11 13 14 13 12 13 14 14 14 16 20 14 8 15 17 17 8 3 7 8 12 10 12 11 11 10 7 6 2 3 4 4 3 3 4 13 18 22 14 18 24 29 25 22 26 32 32 32
11 11 11 11 12 13 14 15 14 13 11 12 13 13 12 8 5 9 7 8 9 9 6 3 2 5 11 13 15 14 10 8 5 4 2 3 2 4 2 7 14 16 20 24 28 27 29 31 24 25 21 18 18 17
11 12 13 13 14 14 15 16 15 14 14 14 14 14 16 19 19 16 13 6 5 8 7 3 1 3 4 4 4 5 5 5 4 4 3 2 3 2 3 11 17 21 21 21 26 29 35 31 28 25 28 28 31 32
9 10 11 17 15 15 16 16 14 13 12 12 12 12 10 6 7 7 7 7 8 7 4 2 3 3 4 5 5 4 3 3 2 2 2 3 2 4 8 11 17 20 16 22 21 20 22 30 31 31 29 26 22 22
10 8 7 10 21 15 20 17 15 12 10 9 9 4 4 5 7 3 2 2 3 3 3 3 3 3 5 3 1 2 1 2 2 3 5 2 4 19 22 25 25 25 26 23 24 25 21 19 22 21 14 16 24 25
4 4 7 10 17 23 21 17 14 13 11 5 3 4 7 3 3 3 3 4 3 3 3 3 3 4 5 3 3 2 2 2 1 3 3 2 3 2 5 3 4 7 11 15 23 26 25 20 13 12 22 28 20 15
9 12 15 7 19 25 22 19 15 14 7 4 8 10 4 3 4 4 2 1 2 1 3 4 5 3 4 3 4 2 2 2 2 7 2 2 3 1 5 6 9 8 10 9 4 15 16 18 20 20 19 16 9 6
15 11 14 13 23 20 19 15 13 14 15 7 4 4 3 4 5 3 1 2 1 3 7 6 2 3 3 2 4 2 2 3 4 2 3 3 0 4 9 8 7 8 7 7 3 4 9 11 12 11 11 11 11 10
20 20 19 20 21 23 24 23 24 23 4 3 3 4 3 0 1 3 2 3 0 2 12 12 5 4 3 2 2 2 2 2 1 2 3 1 0 4 5 5 7 10 11 9 7 4 2 5 6 7 7 10 10 8
16 15 15 13 12 17 16 14 14 3 3 3 2 2 3 3 1 3 3 2 5 7 7 6 4 3 1 2 1 2 2 2 3 3 2 5 1 1 3 4 5 7 8 7 6 5 4 2 2 6 8 10 11 11
13 11 10 8 7 6 5 5 6 3 4 3 1 1 1 2 3 3 3 2 5 4 5 3 2 2 2 2 3 5 3 4 3 2 2 4 1 3 3 4 3 4 6 6 5 3 2 2 3 7 8 9 11 11
6 9 9 8 7 6 5 6 3 3 1 1 1 2 1 0 2 2 1 1 5 5 1 2 2 4 1 2 3 3 3 2 2 3 2 3 2 3 3 4 4 3 3 4 4 3 2 3 2 3 6 8 8 9
6 10 9 6 5 6 5 2 2 1 2 2 0 1 4 3 2 3 4 5 5 4 3 2 1 2 2 1 2 1 1 2 0 1 1 2 2 3 2 1 3 6 6 4 2 4 4 4 4 4 5 6 7 8
8 9 8 6 6 3 2 1 2 2 3 3 4 6 3 3 5 5 5 6 5 5 2 2 1 2 2 3 3 5 4 4 4 4 1 2 3 4 3 1 1 2 3 2 3 4 4 3 4 4 2 3 6 9
9 9 8 8 6 1 1 1 1 2 3 2 4 5 4 3 2 4 7 7 7 3 2 2 3 3 5 4 6 4 4 5 2 5 4 3 0 2 2 1 2 2 1 1 0 0 1 1 1 1 2 2 2 6
9 7 5 8 8 3 1 1 2 3 4 4 4 3 2 4 6 6 8 10 4 3 2 8 7 7 4 1 2 2 3 1 2 1 2 3 4 2 4 6 3 5 5 4 4 3 3 4 4 4 4 2 3 4
3 7 5 7 1 2 3 4 3 4 3 4 4 3 2 1 4 9 10 6 5 7 7 5 5 10 10 6 5 4 3 3 2 2 2 1 3 3 2 2 3 5 5 5 5 5 6 7 6 5 6 6 5 7
7 4 2 4 3 2 3 3 3 3 2 2 1 2 2 2 2 11 3 4 6 8 10 11 9 8 8 7 5 3 3 4 6 3 1 2 3 3 2 3 4 5 4 5 8 7 8 8 9 8 8 8 7 7
5 1 3 4 5 3 2 3 4 3 3 2 2 1 2 2 8 1 2 3 6 7 7 8 9 9 9 7 5 5 5 5 5 4 4 3 4 4 4 5 7 5 4 5 6 8 8 9 9 8 9 10 9 8
3 3 2 3 4 0 1 2 2 1 3 3 1 3 3 5 2 1 2 3 7 7 8 9 10 8 10 11 8 8 8 6 5 5 5 4 4 4 5 4 5 9 11 7 6 6 7 8 11 11 10 10 9 10
3 1 2 1 2 3 3 2 3 4 2 1 4 2 1 2 2 4 2 4 6 10 13 13 13 11 11 11 12 10 7 6 5 5 4 4 4 3 3 4 3 2 5 9 12 13 9 9 9 12 14 12 11 10
4 4 5 6 5 5 4 3 2 1 2 2 2 1 2 2 4 3 3 5 8 10 14 14 13 12 14 15 13 10 8 7 6 7 7 6 4 4 5 6 5 6 6 6 7 9 9 10 8 10 12 15 16 15
4 6 5 15 6 3 3 2 1 2 1 6 2 1 3 5 3 5 5 8 8 8 12 15 14 13 15 12 10 8 7 7 6 5 5 4 5 4 4 5 5 7 9 8 8 6 8 9 12 12 13 13 13 16
4 10 13 3 5 4 4 4 3 5 8 5 1 2 2 3 2 2 4 6 11 16 18 20 17 14 12 10 7 6 3 4 8 9 8 7 7 7 9 8 8 10 12 11 9 9 10 11 12 13 15 17 15 13
4 11 5 4 2 2 1 9 11 18 18 15 9 3 3 5 5 6 6 6 7 9 11 13 14 11 10 10 11 10 7 5 5 4 3 2 3 7 9 9 9 10 11 10 9 8 9 9 10 11 13 12 14 13
6 4 4 3 4 8 16 19 19 17 17 17 13 16 14 9 9 11 11 11 11 12 13 12 13 13 11 9 7 4 3 2 2 2 1 2 5 7 8 8 7 7 7 6 7 8 9 9 9 9 10 9 9 11
4 4 1 2 6 15 18 8 10 6 5 8 9 12 11 5 3 4 7 6 9 11 11 13 13 12 9 7 4 3 2 3 2 1 3 4 5 6 6 6 5 5 7 9 8 7 9 10 9 9 9 8 8 9
8 10 6 4 4 5 5 11 5 5 6 5 6 9 5 5 4 3 4 3 6 10 13 13 11 9 7 6 5 5 5 3 1 1 2 3 5 6 6 6 7 7 7 6 6 6 7 8 9 10 10 10 10 10
Wind_Direction
63 65 67 73 78 83 89 95 102 109 105 107 106 112 119 121 134 149 128 140 147 94 113 171 155 139 138 157 147 159 115 188 118 113 136 172 140 217 97 165 168 153 154 172 127 127 254 174 186 207 207 172 178 189
63 71 71 74 81 87 91 94 96 101 111 115 122 118 114 118 112 142 131 126 124 107 103 117 124 165 166 176 141 160 154 144 156 98 152 113 153 157 164 205 143 183 177 174 176 202 223 219 255 213 224 184 206 211
74 76 85 84 81 87 93 96 98 93 92 93 97 111 128 124 112 122 116 116 117 106 91 93 70 96 157 156 154 122 139 141 123 126 152 137 131 128 144 245 152 225 155 177 116 182 212 227 226 196 208 229 223 196
127 97 85 90 88 89 96 101 107 104 99 92 85 91 105 110 109 126 123 123 119 104 94 71 96 84 83 152 146 152 135 129 118 105 89 109 117 111 184 194 187 193 125 150 297 287 328 262 238 237 242 209 189 187
161 149 119 105 100 90 97 105 107 110 105 99 89 88 96 99 104 116 112 102 94 115 136 110 91 79 94 107 120 129 144 132 109 76 63 138 128 102 354 35 246 190 167 150 228 198 223 256 153 282 215 226 264 277
165 159 146 134 127 113 100 108 111 113 108 96 83 80 92 104 113 103 80 76 90 102 107 73 87 113 90 110 114 111 111 102 88 95 116 131 158 150 166 232 214 237 254 256 254 267 269 274 274 256 265 273 269 270
174 168 157 146 143 140 130 128 124 122 115 100 87 74 71 91 84 61 79 47 65 88 85 53 23 87 115 98 95 94 87 88 80 94 104 132 170 179 174 250 246 254 259 264 267 267 263 262 259 269 264 261 249 254
174 178 173 160 151 152 147 141 139 136 128 120 110 99 91 88 94 88 83 65 70 83 79 100 70 90 144 84 78 103 103 106 84 102 119 157 171 165 262 249 274 281 284 276 277 265 261 262 261 260 267 265 263 265
166 171 183 171 165 159 158 152 152 145 131 121 118 110 103 65 52 72 68 58 59 71 96 73 126 181 120 67 64 56 66 45 73 103 268 150 227 228 236 260 277 286 273 274 280 279 267 256 259 263 268 272 258 252
150 167 177 179 181 180 165 158 165 156 141 126 127 82 67 88 96 64 147 161 62 54 94 100 94 91 113 109 57 108 355 140 134 222 160 177 250 258 268 274 285 288 290 283 262 267 262 257 256 257 233 277 280 273
149 201 192 169 166 163 162 162 170 159 142 121 67 74 115 105 54 41 55 52 355 37 53 84 115 131 156 130 170 189 157 140 147 240 147 236 266 258 25 61 334 314 300 278 254 251 253 263 254 223 292 300 290 264
107 126 136 137 163 162 163 170 173 158 137 122 117 112 69 37 45 68 25 24 45 141 168 133 174 106 126 130 97 147 138 129 249 145 191 251 246 305 335 338 333 328 329 339 313 237 247 255 265 271 277 285 282 242
102 103 112 125 143 148 161 166 178 157 129 109 66 72 24 10 39 88 38 344 5 167 158 158 93 119 111 91 84 125 148 218 114 89 224 230 192 360 350 355 0 11 11 14 37 198 225 240 261 275 273 246 209 248
90 91 121 133 124 129 133 133 135 132 102 57 54 87 104 12 268 201 190 199 35 188 152 142 115 133 142 115 141 145 233 120 337 236 234 293 105 19 342 5 30 30 32 32 28 11 306 252 244 252 221 186 204 188
100 102 103 101 104 110 110 119 130 143 90 83 83 160 214 244 52 21 6 72 82 117 126 102 70 98 76 122 191 106 47 244 221 244 222 247 142 321 319 348 11 18 17 17 24 38 40 35 200 170 167 173 177 183
102 108 111 128 138 150 156 126 117 90 63 86 160 65 237 49 352 357 23 92 125 139 98 84 108 80 181 167 162 206 184 215 225 220 188 171 312 277 264 300 331 16 26 26 29 49 105 126 142 148 161 182 197 208
80 109 118 129 129 132 133 128 78 50 58 194 277 224 195 259 165 191 219 238 170 157 157 117 146 198 208 202 208 179 208 250 306 128 162 238 226 224 237 300 339 20 22 32 37 68 104 133 167 182 184 186 192 197
118 136 129 117 118 125 104 58 63 9 309 256 218 215 208 220 190 213 175 165 162 190 159 204 140 194 230 314 79 284 290 331 320 189 340 319 154 166 197 302 3 354 351 29 72 116 120 134 148 166 181 183 191 198
138 138 133 137 123 94 63 66 6 317 275 298 284 262 257 253 247 221 173 166 197 218 210 173 166 211 193 199 202 242 259 221 190 177 97 65 180 174 179 219 328 357 3 64 73 107 111 106 92 67 39 235 218 199
151 157 158 161 171 16 105 166 267 282 279 307 258 221 203 207 186 201 194 188 190 231 186 205 219 225 182 195 191 180 157 168 172 180 211 213 110 93 119 326 265 262 213 196 322 73 170 177 223 304 357 6 182 192
176 208 236 222 221 271 247 287 265 254 288 276 301 231 228 211 203 188 186 186 184 216 232 227 232 205 170 59 340 196 203 213 234 208 275 239 218 341 40 16 336 260 235 243 250 240 272 278 287 297 270 254 265 237
211 190 206 187 182 232 265 224 242 306 259 280 294 221 245 219 191 182 176 184 222 227 214 211 208 218 226 248 253 243 213 217 233 125 104 146 179 205 259 315 356 341 265 260 273 277 276 278 275 277 274 251 267 258
167 142 151 157 210 242 251 210 230 214 221 254 212 227 249 233 185 155 190 224 239 251 246 236 245 231 235 210 198 211 203 169 166 162 50 351 351 337 328 301 297 302 330 289 270 269 276 271 269 269 266 261 261 255
301 265 213 202 208 251 244 234 223 227 226 246 217 281 252 201 167 173 234 235 232 244 243 230 222 189 178 188 183 172 174 175 185 202 201 233 257 273 250 254 285 260 289 289 295 288 271 269 264 263 268 261 260 253
260 237 240 292 207 143 293 285 275 223 231 226 151 292 263 172 131 207 222 250 238 233 206 192 194 208 204 189 180 192 199 206 211 228 228 256 265 261 256 263 271 264 265 266 276 288 299 282 261 258 254 253 262 259
222 3 43 271 297 199 226 220 223 218 192 230 227 249 182 93 108 243 240 316 244 230 207 202 202 195 188 197 186 183 182 190 206 225 229 230 236 259 280 290 312 303 265 266 277 276 269 284 282 261 256 257 255 258
41 360 341 357 315 290 290 282 260 136 202 227 268 360 91 158 238 256 327 310 289 264 212 205 209 210 192 179 183 189 195 210 213 224 240 236 255 271 284 287 295 291 290 283 285 279 295 261 267 276 275 265 260 257
359 33 345 320 309 264 267 275 219 205 281 339 299 258 202 194 240 319 328 311 297 234 207 197 198 195 176 181 197 217 230 241 234 204 199 225 248 257 271 262 266 281 292 293 289 288 289 281 276 275 276 277 273 264
338 340 343 293 293 284 39 18 342 0 356 324 279 236 148 121 19 1 298 288 208 181 173 173 167 172 173 172 168 155 150 159 183 195 211 234 255 289 294 294 300 306 303 297 300 291 278 277 281 281 279 274 273 264
304 330 308 294 287 288 137 333 310 312 307 290 281 266 143 133 107 152 181 176 174 170 157 151 146 157 164 168 152 145 141 133 138 160 194 245 300 298 300 298 298 307 309 309 302 300 294 279 281 283 294 288 262 255
279 273 262 260 266 280 301 317 310 304 285 274 268 223 178 153 115 112 124 132 147 156 159 154 147 148 157 154 151 142 150 128 101 149 255 288 293 293 291 303 299 296 312 314 310 301 300 296 287 290 298 299 280 270
274 253 314 314 289 301 317 331 308 267 263 238 220 167 155 138 90 112 64 119 143 142 138 133 138 137 151 162 172 176 162 136 115 1 337 335 343 340 338 341 331 305 296 306 302 305 305 309 303 293 294 297 299 288
275 279 275 259 292 316 322 322 284 284 262 257 197 158 123 116 109 137 83 99 139 130 135 131 129 134 150 161 159 146 144 148 118 39 355 350 348 346 342 342 343 343 346 352 344 335 320 310 304 306 303 299 295 290